Starlink 31363

operational
NORAD ID: 59782 Int'l Des: 2024-093 Owner: SPXS Country: US Constellation: starlink
LEOCIRCULAR

About Starlink 31363

Description loading...

Live Position

Loading 3D Globe...

Upcoming Passes

Altitude History

Altitude vs Time

uPlot chart will show altitude changes over time

Two-Line Element Set

1 59782U 24093A 25353.86391039 .00001624 00000-0 68552-4 0 9999
2 59782 42.9993 296.5079 0001001 294.2010 65.8737 15.27568982 90522
Epoch: Dec 19, 2025 • Age: 9 hours

Current Status

Altitude 488.4 km
Velocity 7.62 km/s
Sub-Earth Point -24.29°S, 86.65°E
Launch Date May 18, 2024
Age 1.5 years
Type internet

Technical Details

Classification Payload
Mass 730.00 kg
Dry Mass 700.00 kg
Total Mass 730.00 kg
Length 0.30 m
Diameter 4.10 m
Span 29.00 m
Shape Box + pan
Manufacturer SPXS
Bus Type Starlink V2M
Phase Status In Orbit
Owner/State SPXS/US

Large Constellations

Loading constellations...